SP8AQK-13 Weather Reports


Display with metric or nautical units.
time (UTC)temp
F
wind
direction
speed
MPH
gust
MPH
rain 1hr
in
rain 24hr
in
rain mn
in
humidity
%
barometer
mb
20260905225417 60 0.0 0.0 0.00 0.00 0.00 78 1019.0
20260905223416 60 0.0 0.0 0.00 0.00 0.00 78 1019.4
20260905221415 59 0.0 0.0 0.00 0.00 0.00 78 1018.7
20260905215415 59 0.0 0.0 0.00 0.00 0.00 78 1018.6
20260905213414 59 0.0 0.0 0.00 0.00 0.00 82 1018.8
20260905211413 59 0.0 0.0 0.00 0.00 0.00 83 1018.8
20260905205413 57 0.0 0.0 0.00 0.00 0.00 86 1018.7
20260905203412 57 0.0 0.0 0.00 0.00 0.00 87 1018.8
20260905201411 57 0.0 0.0 0.00 0.00 0.00 89 1018.8
20260905193410 57 0.0 0.0 0.00 0.00 0.00 83 1018.6
20260905191409 58 0.0 0.0 0.00 0.00 0.00 81 1018.4
20260905185408 59 0.0 0.0 0.00 0.00 0.00 79 1018.4
20260905183408 61 0.0 0.0 0.00 0.00 0.00 76 1018.1
20260905181407 60 0.0 0.0 0.00 0.00 0.00 75 1018.1
20260905175406 61 0.0 0.0 0.00 0.00 0.00 76 1018.1
20260905173405 62 0.0 0.0 0.00 0.00 0.00 76 1017.8
20260905171405 63 0.0 0.0 0.00 0.00 0.00 68 1017.7
20260905165404 63 0.0 0.0 0.00 0.00 0.00 70 1017.5
20260905163403 64 0.0 0.0 0.00 0.00 0.00 67 1017.4
20260905161402 66 0.0 0.0 0.00 0.00 0.00 62 1017.0
20260905155402 66 0.0 0.0 0.00 0.00 0.00 61 1016.6
20260905153401 67 0.0 0.0 0.00 0.00 0.00 59 1016.4
20260905151401 68 0.0 0.0 0.00 0.00 0.00 58 1016.4
20260905145359 68 0.0 0.0 0.00 0.00 0.00 56 1016.2
20260905143359 69 0.0 0.0 0.00 0.00 0.00 56 1016.3
20260905141358 70 0.0 0.0 0.00 0.00 0.00 56 1016.0
20260905135357 72 0.0 0.0 0.00 0.00 0.00 53 1015.9
20260905133356 71 0.0 0.0 0.00 0.00 0.00 54 1015.9
20260905131356 72 0.0 0.0 0.00 0.00 0.00 54 1015.9
20260905125355 70 0.0 0.0 0.00 0.00 0.00 58 1016.1
20260905121353 71 0.0 0.0 0.00 0.00 0.00 58 1016.3
20260905115353 70 0.0 0.0 0.00 0.00 0.00 59 1016.5
20260905111351 69 0.0 0.0 0.00 0.00 0.00 61 1016.6
20260905105351 67 0.0 0.0 0.00 0.00 0.00 67 1016.7
20260905101349 69 0.0 0.0 0.00 0.00 0.00 68 1016.3
20260905095348 66 0.0 0.0 0.00 0.00 0.00 74 1016.4
20260905093348 65 0.0 0.0 0.00 0.00 0.00 82 1016.4
20260905091347 64 0.0 0.0 0.00 0.00 0.00 84 1016.6
20260905085346 64 0.0 0.0 0.00 0.00 0.00 85 1016.4
20260905081345 64 0.0 0.0 0.00 0.00 0.00 84 1016.0
20260905075344 64 0.0 0.0 0.00 0.00 0.00 87 1015.9
20260905073343 63 0.0 0.0 0.00 0.00 0.00 88 1015.5
20260905071343 63 0.0 0.0 0.00 0.00 0.00 95 1015.5
20260905063341 63 0.0 0.0 0.00 0.00 0.00 94 1015.1
20260905061341 63 0.0 0.0 0.00 0.00 0.00 95 1014.6
20260905055340 63 0.0 0.0 0.00 0.00 0.00 96 1014.7
20260905053339 63 0.0 0.0 0.00 0.00 0.00 96 1014.4
20260905051338 63 0.0 0.0 0.00 0.00 0.00 88 1014.2
20260905045338 64 0.0 0.0 0.00 0.00 0.00 84 1013.6
20260905043337 63 0.0 0.0 0.00 0.00 0.00 77 1013.3
20260905041336 64 0.0 0.0 0.00 0.00 0.00 72 1013.3
20260905035335 64 0.0 0.0 0.00 0.00 0.00 77 1013.2
20260905033335 65 0.0 0.0 0.00 0.00 0.00 73 1013.1
20260905031334 65 0.0 0.0 0.00 0.00 0.00 73 1012.9
20260905025333 65 0.0 0.0 0.00 0.00 0.00 75 1012.6
20260905023332 66 0.0 0.0 0.00 0.00 0.00 82 1013.0
20260905021332 67 0.0 0.0 0.00 0.00 0.00 82 1012.3
20260905015331 67 0.0 0.0 0.00 0.00 0.00 89 1012.0
20260905013330 67 0.0 0.0 0.00 0.00 0.00 84 1011.9
20260905011330 66 0.0 0.0 0.00 0.00 0.00 93 1011.7
20260905005329 66 0.0 0.0 0.00 0.00 0.00 88 1010.9
20260905003328 66 0.0 0.0 0.00 0.00 0.00 84 1010.3
20260905001327 67 0.0 0.0 0.00 0.00 0.00 78 1010.0
20260904235327 68 0.0 0.0 0.00 0.00 0.00 76 1010.0
20260904233326 70 0.0 0.0 0.00 0.00 0.00 63 1009.0
20260904231325 70 0.0 0.0 0.00 0.00 0.00 63 1009.0